Regional Weather Roundup
Issued by NWS

Home | Current Version | Previous Version | Graphics & Text | Print | Product List | Glossary On
Versions: 1 2 3 4 5 6 7 8 9 10 11 12 13 14 15 16 17 18 19 20 21 22 23 24 25 26 27
000
ASUS45 KCYS 250510
RWRWY

WYOMING REGIONAL WEATHER ROUNDUP
NATIONAL WEATHER SERVICE CHEYENNE WY
1000 PM MST SAT FEB 24 2018

NOTE:  "FAIR" INDICATES FEW OR NO CLOUDS BELOW 12,000 FEET
WITH NO SIGNIFICANT WEATHER AND/OR OBSTRUCTIONS TO VISIBILITY.

WYZ001-250600-
YELLOWSTONE NATIONAL PARK

CITY           SKY/WX    TMP DP  RH WIND       PRES   REMARKS
LK YELLOWSTONE   N/A      0  -4  83 CALM      29.73R
W YELLOWSTONE  NOT AVBL

$$
WYZ002>013-054>058-071-098>099-250600-
NORTHERN WYOMING

CITY           SKY/WX    TMP DP  RH WIND       PRES   REMARKS
JACKSON        LGT SNOW  16  12  86 SW8       29.81S FOG     WCI   5
CODY           FAIR      25   6  44 W15G21    29.72S WCI  13
GREYBULL       CLOUDY    11   4  73 SE6       29.78S WCI   1
WORLAND        FAIR       6   0  76 CALM      29.77R
SHERIDAN       CLOUDY    13   1  59 CALM      29.71S
BUFFALO        FAIR      22  -3  33 VRB3      29.68S
GILLETTE       FAIR      14   3  61 SW14      29.70S WCI  -1
HULETT         FAIR      21   5  49 MISG      29.70S
NEWCASTLE      FAIR      10   1  67 E3        29.74S

$$
WYZ014>020-022>026-101>103-250600-
CENTRAL WYOMING

CITY           SKY/WX    TMP DP  RH WIND       PRES   REMARKS
BIG PINEY      MOCLDY     5   0  79 CALM      29.81S
PINEDALE       FAIR       9   3  78 CALM      29.81S
DUBOIS           N/A    N/A N/A N/A MISG        N/A
LANDER         FAIR      21   1  41 N5        29.75R WCI  15
RIVERTON       FAIR      17   0  47 W14       29.76R WCI   3
CASPER         FAIR      19  11  70 SW21      29.77R WCI   3
DOUGLAS        FAIR      20   8  60 W13       29.74F WCI   7

$$
WYZ021-027>030-104>119-250600-
SOUTHERN WYOMING

CITY           SKY/WX    TMP DP  RH WIND       PRES   REMARKS
EVANSTON       CLOUDY    12   9  87 SW17      29.85R WCI  -5
FORT BRIDGER   FAIR      13   7  76 W15       29.86S WCI  -3
ROCK SPRINGS   LGT SNOW  14  11  87 SW7       29.85R FOG     WCI   4
DIXON          LGT SNOW  17  14  86 SW10      29.91S WCI   5
RAWLINS        CLOUDY    15  10  80 W16       29.81S WCI  -1
SARATOGA       FAIR      16   9  73 SW10      29.83R WCI   3
LARAMIE        MOCLDY    14   3  61 W20G28    29.76R WCI  -3
CHEYENNE       FAIR      20   3  48 W18       29.78S WCI   5
TORRINGTON     FAIR      26  11  52 W16G26    29.79S WCI  14
PINE BLUFFS    FAIR      21   7  53 SW12      29.82R WCI   9

$$




USA.gov is the U.S. government's official web portal to all federal, state and local government web resources and services.